Hourly Data Report for October 09, 2020

OTTAWA INTL A
ONTARIO
Current Station Operator: NAVCAN

45°19'00.000" N
75°40'00.000" W
114.90 m
6106001
71628
YOW

Download Data

Hourly Data (October 2020)
Hourly Data Report for October 9, 2020
TIME Temp Definition
°C
Dew Point Definition
°C
Rel Hum Definition
%
Wind Dir Definition
10's deg

Wind Spd Definition
km/h
Visibility Definition
km
Stn Press Definition
kPa
Hmdx Definition


Wind Chill Definition


Weather Definition


00:00 1.4 -0.8 85 21 10 24.1 100.58     LegendNANA
01:00 1.6 -0.7 85 22 9 24.1 100.61     Clear
02:00 1.7 -1.1 82 21 10 24.1 100.62     LegendNANA
03:00 1.5 -1.0 83 21 8 24.1 100.65     LegendNANA
04:00 0.6 -1.0 89 21 8 24.1 100.68     Clear
05:00 -0.5 -1.7 92 21 10 24.1 100.71   -4 LegendNANA
06:00 -0.1 -1.1 93 19 9 24.1 100.71   -3 LegendNANA
07:00 0.3 -0.6 94 21 5 24.1 100.75     Mainly Clear
08:00 4.2 2.0 86 23 7 24.1 100.77     LegendNANA
09:00 7.9 2.3 68 23 9 24.1 100.75     LegendNANA
10:00 10.7 2.8 58 24 17 24.1 100.71     Mainly Clear
11:00 12.5 3.3 53 23 18 24.1 100.60     LegendNANA
12:00 14.0 4.0 51 24 22 24.1 100.52     LegendNANA
13:00 14.3 3.1 47 24 25 24.1 100.42     Mostly Cloudy
14:00 13.5 3.1 49 24 22 24.1 100.35     LegendNANA
15:00 14.1 2.9 47 22 22 24.1 100.24     LegendNANA
16:00 13.5 4.1 53 24 13 24.1 100.23     Cloudy
17:00 13.1 3.5 52 21 22 24.1 100.15     LegendNANA
18:00 11.9 4.7 61 20 17 24.1 100.06     LegendNANA
19:00 11.3 7.1 75 18 14 24.1 99.93     Mostly Cloudy
20:00 11.1 7.2 77 18 14 24.1 99.76     LegendNANA
21:00 10.5 6.9 78 16 8 24.1 99.66     LegendNANA
22:00 10.4 6.7 77 18 8 24.1 99.50     Cloudy
23:00 10.6 6.7 77 19 8 24.1 99.42     LegendNANA

Notes on Data Quality.

Legend

  • E = Estimated
  • M = Missing
  • NA = Not Available*
  • [empty] = Indicates an unobserved value
Date modified: